Location: Cortos
(40.7190°N, 4.5893°W)
Time: 19:52:05
(UTC+00:00)

Cosmos 1455 - Pass Details

Date: 05 July 2020
Orbit: 500 x 521 km, 82.5° (Epoch: 06 August)

Event Time Altitude Azimuth Distance (km) Brightness Sun altitude
Rises 21:43:09 0° 342° (NNW) 2,643 7.2 -16.5°
Reaches altitude 10° 21:45:25 10° 333° (NNW) 1,754 6.2 -16.8°
Maximum altitude 21:48:54 34° 268° (W) 879 3.7 -17.2°
Enters shadow 21:51:40 14° 209° (SSW) 1,492 4.3 -17.5°
